Location: Castelbiague
(43.0361°N, 0.9246°E)
Time: 09:52:29
(UTC+00:00)

SL-4 R/B - Pass Details

Date: 17 June 2021
Orbit: 428 x 662 km, 51.6° (Epoch: 27 July)

Event Time Altitude Azimuth Distance (km) Brightness Sun altitude
Exits shadow 22:22:13 10° 76° (ENE) 1,683 4.4 -20.0°
Drops below altitude 10° 22:22:17 10° 76° (ENE) 1,708 4.4 -20.0°
Sets 22:24:34 0° 65° (ENE) 2,553 5.5 -20.2°
